Regional Weather Roundup
Issued by NWS Wakefield, VA

Home | Current Version | Previous Version | Text Only | Print | Product List | Glossary Off
Versions: 1 2 3 4 5 6 7 8 9 10 11 12 13 14 15 16 17 18 19 20 21 22 23 24 25 26 27

000
ASUS41 KAKQ 231016
RWRAKQ

REGIONAL WEATHER ROUNDUP
NATIONAL WEATHER SERVICE WAKEFIELD VA
600 AM EDT TUE MAY 23 2017

Note: "fair" indicates few or no clouds below 12,000 feet with no
significant weather and/or obstructions to visibility. * = Denotes
station may not report precipitation (e.g., rain,snow,etc.),
thunder or fog.

VAZ042-051-052>054-056-231100-
NORTHERN VIRGINIA

CITY           SKY/WX    TMP DP  RH WIND       PRES   REMARKS
WASH NATIONAL  CLOUDY    61  56  83 N6        29.96R
DULLES         CLOUDY    58  51  78 NW3       29.96R
FORT BELVOIR   PTCLDY    56  54  91 CALM      29.95R
QUANTICO       CLOUDY    63  54  72 NE5       29.95R
FREDERICKSBRG* CLOUDY    61  55  81 NE3       29.94S
STAFFORD*      MOCLDY    60  51  71 N5        29.98S
WARRENTON      CLOUDY    60  49  66 NE5       29.94S
CULPEPER*      CLOUDY    59  56  89 CALM      29.96S
MANASSAS*        N/A     59  51  75 NE5       29.96R
LEESBURG*      CLOUDY    57  54  88 CALM      29.97R
WINCHESTER     CLOUDY    50  48  93 CALM      29.97S
FRONT ROYAL*   CLOUDY    52  52 100 CALM      29.96S
LURAY*         CLOUDY    54  54 100 CALM      29.96S
$$

VAZ048-049-060>072-079>083-231100-
CENTRAL AND SOUTH CENTRAL VIRGINIA

CITY           SKY/WX    TMP DP  RH WIND       PRES   REMARKS
RICHMOND       CLOUDY    64  63  96 N10       29.92S
CHESTERFIELD*  CLOUDY   N/A N/A N/A N6        29.93R
PETERSBURG*    LGT RAIN  65  64  97 CALM      29.91F
HANOVER        CLOUDY    62  57  83 N3        29.95S
TAPPAHANNOCK*  CLOUDY    65  65 100 N5        29.94R FOG
QUINTON*       CLOUDY    63  63 100 NE3       29.92R FOG
CHARLOTTSVILLE CLOUDY    62  55  77 N3        29.94S
GORDONSVILLE*  CLOUDY    62  53  72 NE3       29.94S
ORANGE*        CLOUDY    61  50  67 E3        29.94S
LOUISA*          N/A    N/A N/A N/A MISG      29.94R
BUMPASS*       CLOUDY    62  53  72 S5        29.94S
FARMVILLE*     RAIN      67  67 100 NE13      29.91S
CREWE*         CLOUDY    65  61  87 N3        29.91F
FORT PICKETT*  CLOUDY   N/A N/A N/A NE7       29.91F
CHASE CITY*    CLOUDY    66  65  94 CALM      29.91S
CLARKSVILLE*   CLOUDY    64  64 100 CALM      29.89S
SOUTH HILL*    CLOUDY    66  66 100 CALM      29.96S
LAWRENCEVILLE* CLOUDY    65  65  97 NW5       29.90F
EMPORIA*       RAIN      64  64 100 E5        29.91S
$$

VAZ088>098-231100-
SOUTHEAST VIRGINIA

CITY           SKY/WX    TMP DP  RH WIND       PRES   REMARKS
NORFOLK        CLOUDY    66  65  96 NE7       29.91R
VIRGINIA BEACH CLOUDY    65  63  93 NE6       29.90S
NORFOLK NAVAL  CLOUDY    67  64  90 NE8       29.93R
WEST POINT*    CLOUDY    64  63  99 CALM      29.94R VSB 1
SALUDA*        CLOUDY    64  64 100 N5        29.93R
NEWPORT NEWS   CLOUDY    65  64  97 NE6       29.92R
LANGLEY AFB    CLOUDY    66  66 100 NE8       29.91R
FORT EUSTIS    CLOUDY    65  64  94 NE5       29.90R
WILLIAMSBURG*  CLOUDY    66  66 100 CALM      29.93R
HR EXEC AP*    PTSUNNY   64  63  94 CALM      29.89F
FRANKLIN*      CLOUDY    66  65  98 E3        29.90F FOG
US460-WAKEFLD  CLOUDY    66  66 100 VRB3      29.90S FOG
$$

VAZ020-022-025-037-045-231100-
WEST CENTRAL AND SOUTHWEST VIRGINIA

CITY           SKY/WX    TMP DP  RH WIND       PRES   REMARKS
STAUNTON*      CLOUDY    57  51  80 CALM      29.98S
WAYNESBORO*    CLOUDY    58  54  86 N5        29.97R
HOT SPRINGS VA CLOUDY    54  41  62 E9        29.99F
LYNCHBURG      CLOUDY    65  63  93 NE6       29.93S
DANVILLE       HVY RAIN  64  64 100 N3        29.90S VSB 1
SOUTH BOSTON*  CLOUDY    66  64  95 CALM      29.90S
MARTINSVILLE   RAIN      60  58  96 N3        29.95S
ROANOKE        CLOUDY    60  55  83 VRB3      29.95S
BLACKSBURG     CLOUDY    57  54  88 CALM      29.97S
DUBLIN*        LGT RAIN  58  54  84 CALM      29.94F
MARION*        DRIZZLE   58  55  91 NE5       29.96S
HILLSVILLE*    LGT RAIN  58  58 100 CALM      29.92F
RICHLANDS*     CLOUDY    61  55  80 SE7G17    29.90R
WISE*          CLOUDY    55  55 100 CALM      29.91F
ABINGDON*      CLOUDY    63  57  81 NE3       29.89R
$$

MDZ021>025-VAZ099-100-231100-
SOUTHERN MARYLAND AND THE DELMARVA PENINSULA

CITY           SKY/WX    TMP DP  RH WIND       PRES   REMARKS
PATUXENT RIVER CLOUDY    64  64 100 N8        29.94R FOG
BAY BRIDGE APT MOCLDY    61  61 100 CALM      29.95R FOG
LEONARDTOWN    CLOUDY    63  61  94 CALM      29.96R
DOVER          FOG       57  57 100 NW3       29.93S VSB 1/4
GEORGETOWN     CLOUDY    62  60  93 N3        29.94R FOG
EASTON         CLOUDY    63  59  88 CALM      29.98R FOG
CAMBRIDGE      MOCLDY    63  61  94 N6        29.94R FOG
SALISBURY      CLOUDY    62  61  96 NE3       29.93R FOG
OCEAN CITY     CLOUDY    63  60  90 NE9       29.94R
WALLOPS ISLAND CLOUDY    63  63 100 N8        29.93S
ACCOMACK*      CLOUDY    64  52  63 N5        29.92S
$$

NCZ012>017-030>032-231100-
NORTH CENTRAL AND EASTERN NORTH CAROLINA

CITY           SKY/WX    TMP DP  RH WIND       PRES   REMARKS
ROANOKE RAPIDS LGT RAIN  64  64 100 CALM      29.89S
RALEIGH        LGT RAIN  67  67 100 N3        29.89S FOG
ELIZABETH CITY CLOUDY    70  69  97 NE7       29.90S
AHOSKIE*         N/A     66  65  98 CALM      29.89F
EDENTON*       CLOUDY    71  68  92 CALM      29.90S
CURRITUCK*     CLOUDY   N/A N/A N/A CALM      29.91S
KILL DEVIL HLS NOT AVBL
MANTEO         CLOUDY    69  68  94 CALM      29.90S
CAPE HATTERAS  CLOUDY    73  68  84 SW9       29.90S
TARBORO*       NOT AVBL
GOLDSBORO      LGT RAIN  68  68 100 N3        29.87S
WASHINGTON     LGT RAIN  67  67  98 CALM      29.90S
GREENVILLE     CLOUDY    68  68 100 E3        29.91S
NEW BERN       LGT RAIN  68  68 100 CALM      29.90S FOG
WILMINGTON     RAIN      70  69  97 S7        29.87F
$$

VAZ048-231100-
ELSEWHERE

CITY           SKY/WX    TMP DP  RH WIND       PRES   REMARKS
HARRISBURG PA  CLOUDY    52  52 100 NW3       29.95S
BALTIMORE      CLOUDY    56  56 100 CALM      29.94R
ANNAPOLIS      MOCLDY    62  62 100 N3        29.94R
ANDREWS AFB    FOG       59  59 100 N3        29.95R VSB 1
PHILADELPHIA   CLOUDY    61  57  87 N10       29.95R
HENDERSON NC   DRIZZLE   64  63  97 CALM      29.89F
GREENSBORO     LGT RAIN  64  64 100 NW5       29.89S
ROCKY MOUNT    LGT RAIN  67  67 100 CALM      29.89S
$$

VAZ100-231100-
MARINE

STATION/POSITION TIME  TEMP    WIND        PRES    WAVE   SWELL
                       AIR SEA DIR/SP/G            HT/PER HT/PER
                 (UTC) (F)     (DEG/KT/KT) (MB)    (FT/S) (FT/S)
CAPE MAY NJ      0948   61 61   20/  2/  4 1013.2R
LEWES DE         0942   62 62   10/  5/  6 1013.5R
15NM E FENWICK I 0950   59 57  360/  4/  4 1014.0R   4/ 8   3/ 8
OCEAN-CITY-INLET 0942   63 62   40/  2/  4 1013.9R
WACHAPREAGUE VA  0948   65 66   10/  3/  6 1012.7R
THOMAS POINT MD  1000   62 65  350/  5/  5   N/A
GOOSES REEF MD   0950   64     360/ 10/ 12 1014.4S
COVE POINT MD    0948   64      20/ 12/ 15 1014.3R
SOLOMONS ISLAND  0948   64 67  360/  5/ 10   N/A
BISHOPS HEAD MD  0948   64 68  360/  6/  8 1013.9R
PINEY POINT MD   0948           40/  5/  6   N/A
POTOMAC MD       0950   65      30/  8/ 10 1012.6R
CAMBRIDGE MD     0942   63 69                N/A
LEWISETTA VA     0948   65 69   40/  3/  6 1013.3R
RAPPAHANNOCK LGT 0948           20/ 12/ 13 1013.7R
STINGRAY PT      0950   66      50/ 12/ 14 1013.0S
YORK RVR RNG VA  0948   65      40/  7/  8 1012.4R
YORKTOWN VA      0948   65 69   40/  8/ 10 1012.7R
JAMESTOWN VA     0950   66      20/  4/  6   N/A
DOMINION TERM VA 0948   67      70/  5/  6 1012.9R
KIPTOPEKE VA     0948      66   40/  4/  5   N/A
CHES BAY BRIDGE  0948   65 67   20/ 13/ 14 1012.8R
CAPE HENRY VA    0948   65      10/  5/  6   N/A
WILLOUBY STN VA  0948   66      50/  9/ 10 1012.8R
S CRANEY ISL VA  0948   68      70/  6/  7 1012.8R
CAPE HENRY BUOY  0942      63                N/A     3/ 7
1ST LANDING BUOY 0950   65                 1013.2R
CAPE CHARLES BUO 0951      62                N/A     3/ 7
64NM E OF VA BCH 0950   65 64  350/  6/  8 1013.3R   3/ 8   3/ 8
DUCK PIER NC     0948   67 64   20/  8/  8 1011.8F
44100 DUCK FRF   0905      66                N/A     3/ 8
44056 DUCK FRF   0930      65                N/A     3/ 5
OREGON INLET NC  0942   71 74  290/  5/  6 1012.2R
HATTERAS NC      0948   73 75  210/  4/  6 1012.3R
DIAMOND SHLS NC  0950   73 77  170/  8/ 10 1012.7R   4/ 5   3/ 5
CAPE LOOKOUT NC  1000   73     200/ 12/ 15 1012.0R
$$




USA.gov is the U.S. government's official web portal to all federal, state and local government web resources and services.